Lid_Strength_Index
4 4 4 4 4 4 5 5 6 6 6 6 6 7 8 8 10 13 14 11 8 6 6 11 12 11 8 8 7 6 9 11 10 10 10 12 11 12 12 11 11 11 10 9 8
5 4 4 4 4 4 4 5 6 6 6 6 6 6 7 8 14 15 12 7 7 7 11 11 10 9 9 9 8 6 9 9 9 9 10 11 11 11 12 12 12 12 11 10 9
4 5 4 4 4 4 4 4 5 6 6 6 6 6 6 10 15 16 10 8 8 9 12 12 11 10 9 9 10 9 9 10 12 13 12 12 13 12 12 12 10 11 11 10 9
4 4 5 4 4 4 4 4 4 5 6 6 6 6 6 14 17 15 9 9 9 11 12 12 10 10 9 9 12 10 13 13 14 13 13 13 13 13 12 10 11 10 10 10 10
4 4 4 4 4 4 4 4 4 4 4 5 6 6 12 15 16 13 10 11 12 12 12 11 9 9 9 11 12 11 13 14 14 14 14 14 13 13 13 10 11 11 11 10 10
4 4 4 3 4 4 4 4 4 4 4 4 5 5 13 15 14 13 13 12 12 12 12 11 10 10 11 13 11 13 13 14 14 14 14 14 13 14 12 11 11 12 11 10 10
4 3 4 3 3 4 4 4 4 4 3 4 4 12 12 14 11 12 12 13 12 12 11 11 11 10 12 13 13 13 14 14 14 14 14 14 14 14 11 13 12 12 11 11 10
4 4 3 3 3 3 4 4 4 5 4 4 7 11 13 11 10 10 10 10 9 9 10 11 10 12 13 13 14 14 14 14 15 14 14 14 13 12 12 12 12 11 11 11 11
5 5 4 3 3 3 4 5 5 6 7 5 10 11 13 9 11 11 10 10 10 10 10 10 10 12 13 13 14 15 14 15 15 15 15 14 13 12 13 13 12 11 11 11 11
4 5 5 4 3 3 5 6 5 8 9 11 11 12 12 13 11 11 10 10 11 11 11 11 12 13 14 14 15 15 16 16 15 16 16 15 15 12 12 13 12 11 11 11 11
4 4 5 5 4 4 8 8 9 10 10 13 14 14 13 11 11 11 10 11 11 11 13 14 14 15 15 16 16 16 16 16 16 17 16 15 15 13 11 13 12 12 11 11 11
3 4 4 5 6 6 7 10 11 10 12 13 13 13 12 12 13 12 10 12 12 14 14 14 15 16 15 16 16 16 16 16 16 17 17 16 16 13 12 12 12 11 11 11 11
3 3 4 5 8 10 11 12 10 9 13 13 12 13 13 12 14 13 11 13 13 15 15 15 16 16 16 16 16 17 16 17 17 16 17 17 15 14 14 14 13 13 12 12 11
3 3 4 5 7 10 12 11 10 11 13 14 14 14 12 12 14 12 12 13 15 15 15 16 16 16 16 17 17 18 17 18 18 17 17 17 17 13 12 13 13 12 12 12 11
3 3 4 7 10 11 10 9 9 10 17 16 16 12 12 13 14 13 12 13 15 16 15 16 17 17 17 17 17 17 17 18 18 18 18 18 17 14 14 13 13 12 12 11 11
2 3 5 7 9 10 9 9 9 14 16 15 16 17 16 15 14 13 13 12 14 16 16 18 17 17 17 18 17 17 17 18 18 18 18 19 18 14 13 13 13 12 12 12 11
2 4 6 8 8 9 9 9 14 16 14 14 15 16 16 17 17 16 15 15 15 15 15 18 18 18 18 18 17 17 17 16 17 18 17 20 20 14 13 13 13 12 11 11 11
2 4 6 7 8 9 9 11 16 14 15 16 16 16 16 16 17 17 17 16 16 16 18 17 18 19 18 18 18 18 17 16 19 19 18 20 19 14 13 13 13 12 11 12 11
3 7 8 7 8 9 9 14 15 14 14 16 17 17 14 17 17 16 16 16 15 15 14 17 18 18 17 17 17 17 17 17 19 23 20 17 16 13 13 13 12 11 11 11 11
7 9 9 8 10 11 14 13 13 13 15 16 15 15 14 17 17 16 15 14 15 15 15 15 16 18 18 17 17 17 16 17 17 19 20 18 18 15 13 12 12 12 11 10 11
7 11 10 10 11 14 14 14 13 14 14 15 15 16 15 16 16 16 14 14 15 16 16 14 14 19 18 18 17 18 17 19 18 17 18 19 16 11 11 11 11 11 11 11 11
8 14 11 11 15 15 15 13 13 15 15 15 15 15 15 16 16 17 14 14 14 15 16 15 13 18 17 18 18 18 17 16 16 18 19 20 17 13 12 12 12 11 11 10 11
9 10 10 11 14 15 16 17 16 17 15 16 16 15 15 16 16 17 17 16 15 15 15 15 15 17 18 19 19 19 18 16 17 18 19 17 15 14 14 13 12 12 11 11 11
8 12 12 13 14 12 13 15 14 15 15 15 15 16 17 17 16 16 17 16 16 15 15 15 16 15 16 14 16 20 19 18 16 18 17 18 14 12 11 12 11 12 11 11 11
8 11 10 14 15 13 11 11 13 14 16 15 16 16 16 18 17 18 17 17 16 15 15 15 18 19 18 18 19 17 19 19 19 17 17 14 16 14 12 11 10 10 11 12 12
10 10 10 10 11 12 11 12 12 11 13 15 16 12 15 15 14 14 15 16 14 16 16 17 17 21 21 20 19 20 18 19 18 17 17 16 17 12 11 11 11 11 11 11 11
6 6 9 10 10 11 11 11 11 9 8 9 12 12 15 14 10 11 12 13 13 15 17 19 19 20 19 20 20 21 19 19 17 17 16 18 15 11 12 12 11 11 11 12 11